Weather in Kivach

Russia / Republic of Karelia     62°16′33″N   33°58′54″E
temp.,
°C
wind,
m/s
gust,
m/s
humid.,
%
clouds,
%
prec.,
mm/h
press.,
hPa
HPBL,
m
3 august, tue
tue300:00+15ne3988100 0.4 998286
03:00+14e51397100 5.5 993760
06:00+15ese51299100 0.9 989676
09:00+17sse4999100 2.4 987700
12:00+14sw71496100 0.9 9901059
15:00+15sw7148746 1.1 9941170
18:00+17sw6137535 0.5 9961228
21:00+12sw51282100 0.5 9981139
4 august, wed
wed400:00+11sw51180100 0.0 10001034
03:00+11wsw51183100 0.1 10021149
06:00+12wsw51271100 0.1 10041131
09:00+15wsw614574 0.1 10061442
12:00+18w611375 0.0 10071994
15:00+19w610335 0.0 10092543
18:00+18nw49405 0.0 10122370
21:00+12nnw00666 0.0 101410
5 august, thu
thu500:00+10sw11719 0.0 101516
03:00+11w116955 0.0 101611
06:00+10wnw117552 0.0 101730
09:00+15nw005591 0.0 1018362
12:00+19n114499 0.0 10181032
15:00+20s223594 0.0 10182205
18:00+18ne115097 0.0 1019463
21:00+13e117017 0.0 101914
6 august, fri
fri600:00+11se117710 0.0 101910
03:00+9ene11818 0.0 102010
06:00+11ne11755 0.0 102031
09:00+17e24525 0.0 1020641
12:00+20ese434091 0.0 10202237
15:00+20e243435 0.0 10192018
18:00+20ese243224 0.0 10182129
21:00+14ene115815 0.0 101911
7 august, sat
sat700:00+13ene255896 0.0 1019110
03:00+11e26775 0.0 1019132
06:00+11ene28800 0.0 1020239
09:00+17e4847100 0.0 1019967
12:00+20ese5835100 0.0 10191637
15:00+21ese5833100 0.0 10171798
18:00+20e4839100 0.0 10172013
21:00+16ene4114997 0.0 1016432